AFR8 LFPG-KJFK

Flight info

Callsign AFR8
Flight time N/A
Altitude 34000
Route ELCOB UT300 SENLO DCT JSY DCT LIZAD DCT LULOX DCT LIMRI/M083F360 NATE JOOPY/N0466F360 N328A TUSKY DCT PLYMM PARCH4
Aircraft B77W/H-SDE1E2E3FGHIJ2J3J4J5M1RWXY/LB1D1

Departure

Time N/A
Airport Charles de Gaulle International Airport (LFPG)

Arrival

Time 2026-04-30 21:33
Airport John F. Kennedy International Airport (KJFK)
Time Latitude Longitude Altitude Speed Heading
2026-04-30 20:45 42.88589 -68.57932 35789 ft 453 kts 238°
2026-04-30 20:45 42.85357 -68.65239 35786 ft 450 kts 238°
2026-04-30 20:46 42.78916 -68.79748 35788 ft 449 kts 238°
2026-04-30 20:47 42.74061 -68.90638 35786 ft 448 kts 238°
2026-04-30 20:48 42.70829 -68.97864 35550 ft 449 kts 238°
2026-04-30 20:48 42.69206 -69.01488 35725 ft 452 kts 238°
2026-04-30 20:48 42.65898 -69.08856 35787 ft 460 kts 238°
2026-04-30 20:49 42.62575 -69.16241 35788 ft 459 kts 238°
2026-04-30 20:50 42.57568 -69.27334 35780 ft 458 kts 238°
2026-04-30 20:50 42.54238 -69.34687 35977 ft 459 kts 238°
2026-04-30 20:50 42.52581 -69.38341 35598 ft 455 kts 238°
2026-04-30 20:51 42.50930 -69.41975 35747 ft 454 kts 238°
2026-04-30 20:51 42.45925 -69.52966 35781 ft 457 kts 238°
2026-04-30 20:52 42.42607 -69.60232 35777 ft 457 kts 238°
2026-04-30 20:53 42.37586 -69.71191 35784 ft 456 kts 238°
2026-04-30 20:53 42.34255 -69.78441 35786 ft 457 kts 238°
2026-04-30 20:54 42.29219 -69.89368 35783 ft 456 kts 238°
2026-04-30 20:55 42.24175 -70.00269 35778 ft 457 kts 238°
2026-04-30 20:55 42.20831 -70.07475 35777 ft 456 kts 238°
2026-04-30 20:56 42.15797 -70.18292 35788 ft 454 kts 238°
2026-04-30 20:57 42.10757 -70.29083 35794 ft 452 kts 238°
2026-04-30 20:57 42.07412 -70.36222 35791 ft 453 kts 238°
2026-04-30 20:58 42.02855 -70.47324 35791 ft 454 kts 246°
2026-04-30 20:58 42.00440 -70.55122 35789 ft 453 kts 247°
2026-04-30 20:59 41.96795 -70.66781 35797 ft 450 kts 246°
2026-04-30 21:00 41.91911 -70.82255 35789 ft 448 kts 246°
2026-04-30 21:01 41.88241 -70.93803 35789 ft 451 kts 246°
2026-04-30 21:02 41.84544 -71.05383 35800 ft 450 kts 246°
2026-04-30 21:02 41.82087 -71.13052 35796 ft 450 kts 246°
2026-04-30 21:03 41.79616 -71.20741 35794 ft 447 kts 246°
2026-04-30 21:03 41.77166 -71.28343 35801 ft 447 kts 246°
2026-04-30 21:04 41.74697 -71.35981 35802 ft 447 kts 246°
2026-04-30 21:04 41.69489 -71.46115 35699 ft 439 kts 224°
2026-04-30 21:05 41.67147 -71.48834 35194 ft 454 kts 223°
2026-04-30 21:05 41.64698 -71.51588 34854 ft 455 kts 222°
2026-04-30 21:05 41.59900 -71.56955 34856 ft 447 kts 222°
2026-04-30 21:06 41.55145 -71.62256 34837 ft 445 kts 222°
2026-04-30 21:06 41.52826 -71.64832 34574 ft 429 kts 222°
2026-04-30 21:06 41.50547 -71.67361 33651 ft 423 kts 222°
2026-04-30 21:07 41.48314 -71.69839 32480 ft 421 kts 222°
2026-04-30 21:07 41.46070 -71.72326 31287 ft 419 kts 222°
2026-04-30 21:07 41.43866 -71.74766 30261 ft 413 kts 222°
2026-04-30 21:07 41.41695 -71.77168 29458 ft 406 kts 222°
2026-04-30 21:08 41.39514 -71.79578 28740 ft 403 kts 222°
2026-04-30 21:08 41.37373 -71.81942 28081 ft 400 kts 222°
2026-04-30 21:08 41.35251 -71.84285 27424 ft 397 kts 222°
2026-04-30 21:08 41.33133 -71.86619 26749 ft 394 kts 222°
2026-04-30 21:09 41.31022 -71.88944 26036 ft 392 kts 222°
2026-04-30 21:09 41.28941 -71.91235 25356 ft 389 kts 221°
2026-04-30 21:09 41.26877 -71.93504 24659 ft 387 kts 221°
2026-04-30 21:09 41.24798 -71.95788 23982 ft 384 kts 221°
2026-04-30 21:10 41.22733 -71.98055 23302 ft 381 kts 221°
2026-04-30 21:10 41.20707 -72.00277 22648 ft 378 kts 221°
2026-04-30 21:10 41.18696 -72.02480 22015 ft 374 kts 221°
2026-04-30 21:10 41.16707 -72.04657 21459 ft 370 kts 221°
2026-04-30 21:11 41.14705 -72.06847 21022 ft 369 kts 221°
2026-04-30 21:11 41.12696 -72.09088 20613 ft 369 kts 224°
2026-04-30 21:11 41.10989 -72.11552 20223 ft 365 kts 233°
2026-04-30 21:11 41.09594 -72.14400 19831 ft 363 kts 242°
2026-04-30 21:12 41.08588 -72.17467 19439 ft 363 kts 250°
2026-04-30 21:12 41.07780 -72.20695 19045 ft 360 kts 251°
2026-04-30 21:12 41.07009 -72.23828 18663 ft 358 kts 250°
2026-04-30 21:12 41.06234 -72.26968 18277 ft 357 kts 251°
2026-04-30 21:13 41.05457 -72.30107 17895 ft 355 kts 251°
2026-04-30 21:13 41.04691 -72.33196 17552 ft 352 kts 250°
2026-04-30 21:13 41.03921 -72.36289 17267 ft 346 kts 250°
2026-04-30 21:13 41.03184 -72.39250 16902 ft 336 kts 250°
2026-04-30 21:14 41.02468 -72.42122 16544 ft 319 kts 251°
2026-04-30 21:14 41.01789 -72.44843 16238 ft 300 kts 250°
2026-04-30 21:14 41.01141 -72.47434 16001 ft 289 kts 250°
2026-04-30 21:14 41.00510 -72.49950 15660 ft 286 kts 250°
2026-04-30 21:15 40.99892 -72.52413 15332 ft 282 kts 250°
2026-04-30 21:15 40.99268 -72.54900 15009 ft 280 kts 250°
2026-04-30 21:15 40.98653 -72.57348 14709 ft 280 kts 250°
2026-04-30 21:15 40.98037 -72.59799 14411 ft 278 kts 250°
2026-04-30 21:16 40.97429 -72.62215 14131 ft 278 kts 250°
2026-04-30 21:16 40.96817 -72.64641 13822 ft 277 kts 251°
2026-04-30 21:16 40.96209 -72.67053 13538 ft 275 kts 250°
2026-04-30 21:16 40.95597 -72.69478 13246 ft 274 kts 250°
2026-04-30 21:17 40.94996 -72.71856 12953 ft 274 kts 250°
2026-04-30 21:17 40.94395 -72.74230 12665 ft 274 kts 250°
2026-04-30 21:17 40.93789 -72.76622 12373 ft 275 kts 251°
2026-04-30 21:17 40.93077 -72.78974 12066 ft 273 kts 238°
2026-04-30 21:18 40.91817 -72.80835 11969 ft 270 kts 222°
2026-04-30 21:18 40.90339 -72.82378 11656 ft 271 kts 219°
2026-04-30 21:18 40.88821 -72.83865 11185 ft 275 kts 218°
2026-04-30 21:18 40.87270 -72.85357 10815 ft 274 kts 218°
2026-04-30 21:19 40.85741 -72.86822 10495 ft 273 kts 219°
2026-04-30 21:19 40.84196 -72.88303 10142 ft 272 kts 218°
2026-04-30 21:19 40.82668 -72.89768 9776 ft 272 kts 219°
2026-04-30 21:19 40.81130 -72.91241 9423 ft 272 kts 219°
2026-04-30 21:20 40.79618 -72.92688 9091 ft 271 kts 218°
2026-04-30 21:20 40.78082 -72.94157 9003 ft 271 kts 219°
2026-04-30 21:20 40.76563 -72.95610 8994 ft 273 kts 219°
2026-04-30 21:20 40.75023 -72.97082 8990 ft 273 kts 219°
2026-04-30 21:21 40.73489 -72.98547 8986 ft 272 kts 219°
2026-04-30 21:21 40.71939 -73.00027 8991 ft 273 kts 219°
2026-04-30 21:21 40.69181 -73.03336 8981 ft 267 kts 244°
2026-04-30 21:22 40.68682 -73.05666 8997 ft 267 kts 264°
2026-04-30 21:22 40.68600 -73.12797 8603 ft 253 kts 270°
2026-04-30 21:23 40.68613 -73.15109 8209 ft 254 kts 271°
2026-04-30 21:23 40.68625 -73.17431 7831 ft 254 kts 271°
2026-04-30 21:23 40.68647 -73.22081 7074 ft 255 kts 271°
2026-04-30 21:24 40.68658 -73.24423 6690 ft 255 kts 271°
2026-04-30 21:24 40.68668 -73.26759 6307 ft 255 kts 271°
2026-04-30 21:24 40.68677 -73.29081 5933 ft 256 kts 272°
2026-04-30 21:24 40.68687 -73.31429 5552 ft 256 kts 272°
2026-04-30 21:25 40.70025 -73.35612 4775 ft 254 kts 307°
2026-04-30 21:25 40.71104 -73.37466 4394 ft 254 kts 307°
2026-04-30 21:25 40.72174 -73.39298 4018 ft 254 kts 308°
2026-04-30 21:26 40.74302 -73.42978 3270 ft 251 kts 308°
2026-04-30 21:26 40.75353 -73.44812 3011 ft 246 kts 307°
2026-04-30 21:27 40.77294 -73.48209 2972 ft 219 kts 308°
2026-04-30 21:27 40.78194 -73.49789 2975 ft 210 kts 308°
2026-04-30 21:27 40.79062 -73.51311 2978 ft 207 kts 308°
2026-04-30 21:28 40.80715 -73.54417 2968 ft 207 kts 291°
2026-04-30 21:28 40.80859 -73.56297 2979 ft 211 kts 269°
2026-04-30 21:28 40.80475 -73.60159 2968 ft 214 kts 248°
2026-04-30 21:29 40.79677 -73.61829 2984 ft 218 kts 238°
2026-04-30 21:29 40.76595 -73.66138 2772 ft 226 kts 214°
2026-04-30 21:30 40.73903 -73.68187 2179 ft 211 kts 213°
2026-04-30 21:31 40.70396 -73.70913 1410 ft 181 kts 214°
2026-04-30 21:31 40.68372 -73.72490 951 ft 153 kts 214°
2026-04-30 21:32 40.66643 -73.73839 542 ft 139 kts 213°
2026-04-30 21:32 40.65820 -73.74478 334 ft 135 kts 213°
2026-04-30 21:32 40.65009 -73.75104 173 ft 136 kts 212°
2026-04-30 21:32 40.64195 -73.75745 33 ft 132 kts 211°
2026-04-30 21:33 40.63507 -73.76278 28 ft 92 kts 209°
2026-04-30 21:33 40.62981 -73.76772 28 ft 20 kts 233°
2026-04-30 21:33 40.62933 -73.76891 28 ft 13 kts 256°
2026-04-30 21:34 40.62944 -73.77002 28 ft 12 kts 296°
2026-04-30 21:34 40.63030 -73.77193 28 ft 11 kts 302°
2026-04-30 21:34 40.63073 -73.77287 28 ft 11 kts 300°
2026-04-30 21:35 40.63114 -73.77380 28 ft 11 kts 300°
2026-04-30 21:35 40.63156 -73.77472 28 ft 12 kts 301°
2026-04-30 21:35 40.63204 -73.77576 28 ft 14 kts 301°
2026-04-30 21:35 40.63261 -73.77702 28 ft 16 kts 301°
2026-04-30 21:36 40.63324 -73.77840 28 ft 18 kts 300°
2026-04-30 21:36 40.63392 -73.77997 28 ft 20 kts 298°
2026-04-30 21:37 40.63629 -73.78526 28 ft 22 kts 302°
2026-04-30 21:37 40.63706 -73.78694 28 ft 21 kts 300°
2026-04-30 21:37 40.63770 -73.78836 28 ft 17 kts 301°
2026-04-30 21:37 40.63835 -73.78979 28 ft 19 kts 300°
2026-04-30 21:38 40.63906 -73.79134 28 ft 20 kts 301°
2026-04-30 21:38 40.63981 -73.79302 28 ft 21 kts 300°
2026-04-30 21:38 40.64046 -73.79443 28 ft 9 kts 301°
2026-04-30 21:38 40.64103 -73.79502 28 ft 12 kts 345°
2026-04-30 21:39 40.64175 -73.79510 28 ft 10 kts
2026-04-30 21:39 40.64209 -73.79464 28 ft 9 kts 69°
2026-04-30 21:39 40.64240 -73.79398 28 ft 9 kts 44°
2026-04-30 21:39 40.64280 -73.79345 28 ft 5 kts 48°
2026-04-30 21:40 40.64274 -73.79298 28 ft 4 kts 129°
2026-04-30 21:40 40.64249 -73.79282 28 ft 3 kts 158°
2026-04-30 21:40 40.64237 -73.79273 28 ft 1 kts 150°
2026-04-30 21:40 40.64236 -73.79272 28 ft 0 kts 150°